Weather History for Holland, MI

Change the Weather History Date:

Wednesday, January 18, 2012

  Actual Average Record
Temperature  
Mean Temperature 24 °F 26 °F  
Max Temperature 26 °F 32 °F 58 °F (1990)
Min Temperature 21 °F 20 °F -4 °F (2005)
Degree Days  
Heating Degree Days 41 39  
Month to date heating degree days 693  
Since 1 July heating degree days 2961  
Cooling Degree Days 0 0  
Month to date cooling degree days 0  
Year to date cooling degree days 0  
Moisture  
Dew Point 14 °F    
Average Humidity 67    
Maximum Humidity 77    
Minimum Humidity 57    
Precipitation  
Precipitation 0.00 in 0.07 in 0.70 in (1967)
Month to date precipitation 1.35 1.22  
Year to date precipitation 1.22  
Sea Level Pressure  
Sea Level Pressure 30.14 in    
Wind  
Wind Speed 9 mph (SW)    
Max Wind Speed 18 mph    
Max Gust Speed 25 mph    
Visibility 10 miles    
Events      
T = Trace of Precipitation, MM = Missing Value Source: NWS Daily Summary

Daily Weather History Graph

Daily Weather History Graph

Search for Another Location

Airport:

Trip Planner

Search our weather history database for the weather conditions in past years. The results will help you decide how hot, cold, wet, or windy it might be!

Date:

Astronomy

Jan. 18, 2012 Rise Set
Actual Time 8:10 AM EST 5:39 PM EST
Civil Twilight 7:39 AM EST 6:10 PM EST
Nautical Twilight 7:04 AM EST 6:44 PM EST
Astronomical Twilight 6:31 AM EST 7:18 PM EST
Moon 3:40 AM EST (1/18) 1:16 PM EST (1/18)
Length of Visible Light 10h 30m
Length of Day
9h 28m
Waning Crescent, 25% of the Moon is Illuminated
Jan 18
Waning Crescent
Jan 23
New
Jan 30
First Quarter
Feb 7
Full
Feb 14
Last Quarter

Hourly Weather History & Observations

Time (EST) Temp. Windchill Dew Point Humidity Pressure Visibility Wind Dir Wind Speed Gust Speed Precip Events Conditions
12:53 AM 25.0 °F 13.6 °F 12.0 °F 58% 30.17 in 9.0 mi NW 12.7 mph 20.7 mph N/A   Overcast
1:14 AM 24.8 °F 14.0 °F 12.2 °F 59% 30.14 in 9.0 mi NW 11.5 mph 19.6 mph N/A   Overcast
1:27 AM 24.8 °F 16.1 °F 14.0 °F 64% 30.14 in 10.0 mi NNW 8.1 mph - N/A   Overcast
1:34 AM 24.8 °F 17.9 °F 14.0 °F 64% 30.14 in 10.0 mi Variable 5.8 mph - N/A   Overcast
1:53 AM 24.1 °F 19.7 °F 14.0 °F 65% 30.19 in 10.0 mi North 3.5 mph - N/A   Overcast
2:53 AM 23.0 °F 17.0 °F 14.0 °F 68% 30.20 in 10.0 mi North 4.6 mph - N/A   Overcast
3:53 AM 23.0 °F 18.4 °F 15.1 °F 72% 30.22 in 10.0 mi NE 3.5 mph - N/A   Overcast
4:53 AM 23.0 °F 18.4 °F 15.1 °F 72% 30.22 in 10.0 mi ENE 3.5 mph - N/A   Overcast
5:53 AM 21.9 °F 17.2 °F 15.1 °F 75% 30.23 in 10.0 mi East 3.5 mph - N/A   Overcast
6:53 AM 24.1 °F 19.7 °F 12.9 °F 62% 30.24 in 10.0 mi NW 3.5 mph - N/A   Overcast
7:53 AM 24.1 °F 18.2 °F 14.0 °F 65% 30.24 in 10.0 mi West 4.6 mph - N/A   Overcast
8:53 AM 24.1 °F - 15.1 °F 69% 30.25 in 10.0 mi Calm Calm - N/A   Overcast
9:53 AM 25.0 °F 17.1 °F 15.1 °F 66% 30.27 in 10.0 mi West 6.9 mph - N/A   Overcast
10:53 AM 25.0 °F 16.3 °F 15.1 °F 66% 30.26 in 10.0 mi WSW 8.1 mph - N/A   Overcast
11:53 AM 25.0 °F 16.3 °F 15.1 °F 66% 30.24 in 10.0 mi WSW 8.1 mph - N/A   Overcast
12:53 PM 26.1 °F 15.0 °F 15.1 °F 63% 30.21 in 10.0 mi SW 12.7 mph - N/A   Overcast
1:53 PM 26.1 °F 14.5 °F 14.0 °F 60% 30.18 in 10.0 mi SW 13.8 mph - N/A   Overcast
2:53 PM 26.1 °F 14.5 °F 16.0 °F 66% 30.14 in 10.0 mi SSW 13.8 mph - N/A   Overcast
3:53 PM 25.0 °F 13.6 °F 17.1 °F 72% 30.14 in 10.0 mi South 12.7 mph - N/A   Overcast
4:22 PM 24.8 °F 16.1 °F 15.8 °F 69% 30.09 in 10.0 mi SSW 8.1 mph - N/A   Scattered Clouds
4:53 PM 25.0 °F 15.5 °F 12.9 °F 60% 30.12 in 10.0 mi South 9.2 mph - N/A   Clear
5:53 PM 23.0 °F 13.1 °F 10.0 °F 58% 30.09 in 10.0 mi SSE 9.2 mph - N/A   Clear
6:53 PM 21.0 °F 12.4 °F 10.0 °F 63% 30.06 in 10.0 mi SSE 6.9 mph - N/A   Partly Cloudy
7:53 PM 21.9 °F 9.2 °F 12.9 °F 68% 30.03 in 10.0 mi South 13.8 mph - N/A   Overcast
8:53 PM 21.9 °F 8.7 °F 12.9 °F 68% 30.00 in 10.0 mi South 15.0 mph - N/A   Mostly Cloudy
9:53 PM 23.0 °F 10.6 °F 14.0 °F 68% 29.96 in 10.0 mi South 13.8 mph - N/A   Overcast
10:53 PM 23.0 °F 12.4 °F 14.0 °F 68% 29.94 in 10.0 mi South 10.4 mph - N/A   Clear
11:53 PM 25.0 °F 11.7 °F 15.1 °F 66% 29.92 in 10.0 mi South 17.3 mph 25.3 mph N/A   Partly Cloudy